Zurück zum Katalog

ONEWEB-0416

AktivKommunikationPO
NORAD 51625·PAYLOAD·🇬🇧 United Kingdom

Gestartet Feb 10, 2022 von Guiana Space Centre

Loading…

Nächste Überflüge (nächste 24 Stunden)

TLE

AktuellSource: CelesTrak SupGP

Epoche: Sep 14, 2026, 18:22 UTC

1 51625C 22012D   26257.76579120  .00002180  00000+0  62541-2 0  2572
2 51625  87.8893  18.4454 0001377 108.1183   4.7454 13.10366184    18

Verfolge ONEWEB-0416 in Echtzeit mit AllMySat

Download on the App Store